Location: Lac de la Montagne noire
(46.1952°N, 74.2701°W)
Time: 16:05:58
(UTC-04:00)

ISS - Pass Details

Date: 29 March 2019
Orbit: 408 x 410 km, 51.6° (Epoch: 23 April)

Event Time Altitude Azimuth Distance (km) Brightness Sun altitude
Rises 21:16:23 0° 291° (WNW) 2,337 1.6 -19.7°
Reaches altitude 10° 21:18:37 10° 301° (WNW) 1,475 0.2 -20.1°
Maximum altitude 21:21:38 32° 7° (N) 730 -2.4 -20.5°
Enters shadow 21:21:59 31° 21° (NNE) 745 -2.5 -20.6°
